Hereford, TX

2:24 AM CDT on June 27, 2017 (GMT -0500)
Hereford Municipal

Weather History for KHRX - January, 2014

Change the Weather History Date:

Saturday, January 11, 2014

  Actual Average (KCVN) Record (KCVN)
Temperature  
Mean Temperature 42 °F -  
Max Temperature 65 °F 47 °F 73 °F (1953)
Min Temperature 18 °F 21 °F -6 °F (1918)
Degree Days  
Heating Degree Days 24    
Moisture  
Dew Point 13 °F    
Average Humidity 38    
Maximum Humidity 68    
Minimum Humidity 13    
Precipitation  
Precipitation 0.00 in - - ()
Sea Level Pressure  
Sea Level Pressure 30.02 in    
Wind  
Wind Speed 8 mph (SW)    
Max Wind Speed 18 mph    
Max Gust Speed 23 mph    
Visibility 10 miles    
Events      
Averages and records for this station are not official NWS values.
T = Trace of Precipitation, MM = Missing Value Source: NWS Daily Summary

Daily Weather History Graph

Daily Weather History Graph

Search for Another Location

Airport or City:

Trip Planner

Search our weather history database for the weather conditions in past years. The results will help you decide how hot, cold, wet, or windy it might be!

Date:

Astronomy

Jan. 11, 2014 Rise Set
Actual Time 7:57 AM CST 5:57 PM CST
Civil Twilight 7:29 AM CST 6:25 PM CST
Nautical Twilight 6:58 AM CST 6:56 PM CST
Astronomical Twilight 6:27 AM CST 7:26 PM CST
Moon 2:41 PM CST (1/11) 4:05 AM CST (1/11)
Length of Visible Light 10h 55m
Length of Day
10h 00m
Waxing Gibbous, 83% of the Moon is Illuminated
Jan 11
Waxing Gibbous
Jan 15
Full
Jan 23
Last Quarter
Jan 30
New
Feb 6
First Quarter

Hourly Weather History & Observations

Time (CST) Temp. Windchill Dew Point Humidity Pressure Visibility Wind Dir Wind Speed Gust Speed Precip Events Conditions
12:15 AM 27.1 °F 16.9 °F 11.3 °F 51% 29.95 in 10.0 mi West 11.5 mph - N/A   Clear
12:35 AM 27.9 °F 18.4 °F 9.5 °F 46% 29.96 in 10.0 mi West 10.4 mph - N/A   Clear
12:55 AM 25.3 °F 15.3 °F 8.8 °F 50% 29.97 in 10.0 mi West 10.4 mph - N/A   Clear
1:15 AM 24.3 °F 13.9 °F 9.1 °F 53% 29.98 in 10.0 mi West 10.4 mph - N/A   Clear
1:35 AM 22.8 °F 14.5 °F 8.2 °F 54% 29.98 in 10.0 mi West 6.9 mph - N/A   Clear
1:55 AM 21.9 °F 11.7 °F 8.2 °F 56% 29.99 in 10.0 mi West 9.2 mph - N/A   Clear
2:15 AM 24.8 °F 16.1 °F 9.9 °F 53% 30.00 in 10.0 mi West 8.1 mph - N/A   Clear
2:35 AM 23.9 °F 16.8 °F 8.4 °F 52% 30.02 in 10.0 mi WSW 5.8 mph - N/A   Clear
2:55 AM 23.0 °F 14.7 °F 8.4 °F 54% 30.02 in 10.0 mi West 6.9 mph - N/A   Clear
3:15 AM 22.5 °F 12.4 °F 8.4 °F 55% 30.02 in 10.0 mi West 9.2 mph - N/A   Clear
3:35 AM 21.9 °F 14.5 °F 8.6 °F 57% 30.03 in 10.0 mi WNW 5.8 mph - N/A   Clear
3:55 AM 20.7 °F 11.0 °F 7.7 °F 57% 30.04 in 10.0 mi WNW 8.1 mph - N/A   Clear
4:15 AM 19.9 °F 11.1 °F 8.2 °F 61% 30.03 in 10.0 mi WNW 6.9 mph - N/A   Clear
4:35 AM 20.3 °F 12.5 °F 8.4 °F 60% 30.04 in 10.0 mi WSW 5.8 mph - N/A   Clear
4:55 AM 22.5 °F 16.3 °F 10.2 °F 59% 30.04 in 10.0 mi SSW 4.6 mph - N/A   Clear
5:15 AM 22.6 °F 18.0 °F 10.4 °F 59% 30.04 in 10.0 mi SSW 3.5 mph - N/A   Clear
5:35 AM 22.6 °F 11.9 °F 10.4 °F 59% 30.04 in 10.0 mi West 10.4 mph - N/A   Clear
5:55 AM 21.4 °F 11.1 °F 10.2 °F 62% 30.04 in 10.0 mi West 9.2 mph - N/A   Clear
6:15 AM 19.6 °F 10.6 °F 9.5 °F 65% 30.05 in 10.0 mi West 6.9 mph - N/A   Clear
6:35 AM 18.1 °F 12.9 °F 9.3 °F 68% 30.05 in 10.0 mi WSW 3.5 mph - N/A   Clear
6:55 AM 21.2 °F 12.6 °F 10.8 °F 64% 30.07 in 10.0 mi SW 6.9 mph - N/A   Clear
7:15 AM 22.6 °F 16.5 °F 12.0 °F 64% 30.07 in 10.0 mi West 4.6 mph - N/A   Clear
7:35 AM 21.0 °F 13.4 °F 9.9 °F 62% 30.08 in 10.0 mi West 5.8 mph - N/A   Clear
7:55 AM 21.9 °F - 11.1 °F 63% 30.08 in 10.0 mi Calm Calm - N/A   Clear
8:15 AM 21.2 °F - 10.6 °F 64% 30.09 in 10.0 mi Calm Calm - N/A   Clear
8:35 AM 24.3 °F 17.3 °F 13.1 °F 63% 30.09 in 10.0 mi WSW 5.8 mph - N/A   Clear
8:55 AM 27.7 °F - 14.7 °F 58% 30.10 in 10.0 mi Calm Calm - N/A   Clear
9:15 AM 31.8 °F - 15.3 °F 50% 30.10 in 10.0 mi Calm Calm - N/A   Clear
9:35 AM 34.0 °F - 15.4 °F 47% 30.10 in 10.0 mi Calm Calm - N/A   Clear
9:55 AM 38.3 °F - 16.7 °F 42% 30.12 in 10.0 mi Calm Calm - N/A   Clear
10:15 AM 41.2 °F 39.2 °F 16.9 °F 38% 30.13 in 10.0 mi SSW 3.5 mph - N/A   Clear
10:35 AM 43.7 °F - 17.2 °F 35% 30.13 in 10.0 mi Calm Calm - N/A   Clear
10:55 AM 47.1 °F - 18.1 °F 32% 30.13 in 10.0 mi SW 3.5 mph - N/A   Clear
11:15 AM 50.7 °F - 17.6 °F 27% 30.13 in 10.0 mi SW 3.5 mph - N/A   Clear
11:35 AM 54.0 °F - 17.1 °F 23% 30.13 in 10.0 mi SSW 8.1 mph - N/A   Clear
11:55 AM 56.7 °F - 15.6 °F 20% 30.12 in 10.0 mi South 8.1 mph - N/A   Clear
12:15 PM 58.5 °F - 13.8 °F 17% 30.10 in 10.0 mi South 10.4 mph - N/A   Clear
12:35 PM 59.0 °F - 13.8 °F 17% 30.09 in 10.0 mi SW 10.4 mph - N/A   Clear
12:55 PM 59.7 °F - 14.0 °F 17% 30.08 in 10.0 mi SSW 8.1 mph - N/A   Clear
1:15 PM 60.6 °F - 13.1 °F 16% 30.07 in 10.0 mi SW 9.2 mph - N/A   Clear
1:35 PM 61.0 °F - 13.5 °F 16% 30.05 in 10.0 mi SSW 9.2 mph - N/A   Clear
1:55 PM 62.2 °F - 13.1 °F 15% 30.04 in 10.0 mi SSW 9.2 mph - N/A   Clear
2:15 PM 62.4 °F - 12.7 °F 14% 30.04 in 10.0 mi SSW 8.1 mph - N/A   Clear
2:35 PM 63.0 °F - 12.6 °F 14% 30.03 in 10.0 mi SSW 10.4 mph - N/A   Clear
2:55 PM 63.9 °F - 12.7 °F 14% 30.02 in 10.0 mi SSW 10.4 mph - N/A   Clear
3:15 PM 64.9 °F - 12.9 °F 13% 30.02 in 10.0 mi SW 8.1 mph - N/A   Clear
3:35 PM 65.3 °F - 12.9 °F 13% 30.01 in 10.0 mi SSW 12.7 mph 17.3 mph N/A   Clear
3:55 PM 64.9 °F - 13.1 °F 13% 30.00 in 10.0 mi SSW 13.8 mph 19.6 mph N/A   Clear
4:15 PM 64.8 °F - 13.6 °F 14% 30.00 in 10.0 mi SSW 11.5 mph 16.1 mph N/A   Clear
4:35 PM 64.4 °F - 14.5 °F 14% 30.00 in 10.0 mi SSW 10.4 mph 16.1 mph N/A   Clear
4:55 PM 63.5 °F - 14.5 °F 15% 29.99 in 10.0 mi SSW 12.7 mph - N/A   Clear
5:15 PM 62.1 °F - 14.7 °F 16% 29.99 in 10.0 mi South 9.2 mph - N/A   Clear
5:35 PM 59.2 °F - 15.4 °F 18% 29.99 in 10.0 mi South 8.1 mph - N/A   Clear
5:55 PM 53.6 °F - 15.6 °F 22% 29.99 in 10.0 mi South 9.2 mph - N/A   Clear
6:15 PM 51.4 °F - 15.6 °F 24% 29.98 in 10.0 mi South 9.2 mph - N/A   Clear
6:35 PM 49.1 °F - 15.8 °F 27% 29.98 in 10.0 mi South 8.1 mph - N/A   Clear
6:55 PM 45.3 °F 41.1 °F 16.2 °F 31% 29.98 in 10.0 mi South 8.1 mph - N/A   Clear
7:15 PM 44.4 °F 40.0 °F 16.0 °F 32% 29.97 in 10.0 mi South 8.1 mph - N/A   Clear
7:35 PM 44.2 °F 39.2 °F 16.5 °F 33% 29.97 in 10.0 mi South 9.2 mph - N/A   Clear
7:55 PM 45.1 °F 39.5 °F 17.4 °F 33% 29.96 in 10.0 mi South 11.5 mph - N/A   Clear
8:15 PM 45.5 °F 40.3 °F 17.1 °F 32% 29.96 in 10.0 mi South 10.4 mph - N/A   Clear
8:35 PM 44.4 °F 39.5 °F 16.7 °F 33% 29.96 in 10.0 mi South 9.2 mph - N/A   Clear
8:55 PM 43.0 °F 37.7 °F 16.7 °F 35% 29.95 in 10.0 mi SSW 9.2 mph - N/A   Clear
9:15 PM 49.3 °F - 16.5 °F 27% 29.95 in 10.0 mi SSW 15.0 mph - N/A   Clear
9:35 PM 47.7 °F - 16.5 °F 29% 29.95 in 10.0 mi SSW 12.7 mph - N/A   Clear
9:55 PM 47.7 °F - 16.2 °F 28% 29.95 in 10.0 mi SSW 16.1 mph - N/A   Clear
10:15 PM 46.9 °F - 16.0 °F 29% 29.95 in 10.0 mi SSW 11.5 mph - N/A   Clear
10:35 PM 46.2 °F 39.5 °F 16.7 °F 31% 29.93 in 10.0 mi SSW 16.1 mph 21.9 mph N/A   Clear
10:55 PM 46.2 °F 39.8 °F 17.1 °F 31% 29.93 in 10.0 mi SSW 15.0 mph - N/A   Clear
11:15 PM 45.5 °F 39.6 °F 17.2 °F 32% 29.93 in 10.0 mi SSW 12.7 mph - N/A   Clear
11:35 PM 45.0 °F 40.1 °F 17.4 °F 33% 29.91 in 10.0 mi SSW 9.2 mph - N/A   Clear
11:55 PM 50.4 °F - 17.8 °F 28% 29.91 in 10.0 mi SW 18.4 mph 23.0 mph N/A   Clear